Tracking 23582 objects as of 1-Aug-2021
HD Live streaming from Space Station
objects crossing your sky now

FALCONSAT-7


FALCONSAT-7 is no longer on orbit


NORAD ID: 44347
Int'l Code: 2019-036J
Perigee: N/A
Apogee: N/A
Inclination: N/A
Period: N/A
Semi major axis: N/A
RCS: N/A
Launch date: June 25, 2019
Source: United States (US)
Launch site: AIR FORCE EASTERN TEST RANGE (AFETR)
Decay date: 2021-07-02
aabbcc
Your satellite tracking list
Your tracking list is empty




NASA's NSSDC Master Catalog

Two Line Element Set (TLE):
1 44347U 19036J   21181.47451143  .02136137 -72896-5  13624-2 0  9992
2 44347  28.5105 234.1535 0025306 340.6649  19.3008 16.15526325112603
Source of the keplerian elements: AFSPC